Simultaneous Nadir Overpasses (SNOs) Predictions

Prediction of SNOs between METOP-A and TERRA Satellite Orbit:

Table of predicted SNOs for the next 14.0 days since TLE Epoch: 10/6/2018
Index Date (METOP-A) Time (METOP-A) Lat,Lon (METOP-A) SZA (METOP-A ) Date (TERRA) Time (TERRA) Lat,Lon (TERRA) SZA (TERRA ) Distance(km) Time Diff (sec)
1 10/08/2018 08:50:31 81.43, 96.65 90.63 10/08/2018 08:51:31 81.43, 96.66 90.66 0.24 60
2 10/08/2018 09:41:11 -81.43, -95.81 89.33 10/08/2018 09:40:58 -81.42, -95.77 89.34 0.88 13
3 10/11/2018 04:24:46 81.43, 163.12 91.72 10/11/2018 04:25:43 81.44, 163.27 91.77 2.65 57
4 10/11/2018 05:15:25 -81.43, -28.94 88.20 10/11/2018 05:15:10 -81.43, -29.13 88.23 3.21 15
5 10/13/2018 23:59:02 81.43,-130.43 92.79 10/13/2018 23:59:57 81.43,-130.51 92.80 1.35 55
6 10/14/2018 00:49:42 -81.43, 37.12 87.18 10/14/2018 00:49:24 -81.43, 37.11 87.19 0.55 18
7 10/16/2018 19:33:18 81.43, -64.00 93.84 10/16/2018 19:34:10 81.43, -63.91 93.88 1.62 52
8 10/16/2018 20:23:58 -81.43, 103.57 86.12 10/16/2018 20:23:37 -81.43, 103.74 86.11 2.92 21
9 10/19/2018 15:07:33 81.43, 2.42 94.87 10/19/2018 15:08:23 81.42, 2.31 94.88 2.03 50




NCC Satellite Simultaneous Nadir Overpasses (SNOs) Prediction Service
